Home   Weather   France   Royan   Past weeks
Flag for France

Past Weather in Royan, Charente-Maritime, France — Yesterday and Last 2 Weeks

Currently: 54 °F. Scattered clouds. (Weather station: Cognac Airport, France). See more current weather

Past Weather in Royan — Graph

°F

Royan Temperature Yesterday

Maximum temperature yesterday: 59 °F (at 2:30 pm)
Minimum temperature yesterday: 45 °F (at 7:00 am)
Average temperature yesterday: 52 °F

High & Low Weather Summary for the Past Weeks

 TemperatureHumidityPressure
High84 °F (Apr 13, 4:30 pm)100% (Apr 7, 11:30 pm)30.57 "Hg (Apr 7, 11:30 pm)
Low37 °F (Apr 19, 5:00 am)32% (Apr 19, 4:00 pm)29.68 "Hg (Apr 8, 2:00 pm)
Average57 °F71%30.20 "Hg
* Reported Apr 6 12:00 pm — Apr 21 12:30 pm, Royan. Weather by CustomWeather, © 2024

Note: Actual official high and low records may vary slightly from our data, if they occured in-between our weather recording intervals... More about our weather records

Royan Weather History for the Previous 24 Hours

Scroll right to see more
 ConditionsComfort  
Time TempWeatherWind HumidityBarometerVisibility
12:30 pm
Sun, Apr 21
54 °FSunny.17 mph47%30.24 "Hg10 mi
12:00 pm52 °FPassing clouds.17 mph50%30.24 "HgN/A
11:30 am52 °FPassing clouds.18 mph54%30.24 "HgN/A
11:00 am50 °FPassing clouds.15 mph58%30.24 "HgN/A
10:30 am48 °FSunny.14 mph66%30.27 "Hg10 mi
10:00 am48 °FSunny.14 mph66%30.27 "Hg10 mi
9:00 am45 °FSunny.12 mph71%30.27 "Hg10 mi
8:30 am43 °FSunny.13 mph76%30.27 "Hg10 mi
8:00 am41 °FSunny.12 mph81%30.24 "Hg10 mi
7:30 am41 °FSunny.10 mph81%30.24 "Hg10 mi
7:00 am41 °FClear.8 mph81%30.24 "Hg10 mi
6:30 am41 °FClear.10 mph81%30.24 "Hg10 mi
6:00 am41 °FClear.10 mph81%30.24 "Hg10 mi
5:30 am41 °FClear.7 mph81%30.24 "Hg10 mi
5:00 am41 °FClear.8 mph76%30.24 "Hg10 mi
4:30 am41 °FClear.9 mph76%30.24 "Hg10 mi
4:00 am43 °FClear.9 mph71%30.24 "Hg10 mi
3:30 am43 °FClear.8 mph71%30.24 "Hg10 mi
3:00 am43 °FClear.6 mph71%30.24 "Hg10 mi
2:30 am43 °FClear.8 mph71%30.24 "Hg10 mi
2:00 am45 °FClear.8 mph66%30.27 "Hg10 mi
1:30 am45 °FClear.8 mph66%30.27 "Hg10 mi
1:00 am45 °FClear.8 mph66%30.27 "Hg10 mi
12:30 am46 °FClear.9 mph62%30.27 "Hg10 mi
12:00 am46 °FClear.9 mph62%30.27 "Hg10 mi
11:30 pm
Sat, Apr 20
48 °FClear.9 mph58%30.27 "Hg10 mi
11:00 pm48 °FClear.10 mph58%30.27 "Hg10 mi
10:00 pm50 °FClear.8 mph54%30.24 "Hg10 mi
9:30 pm52 °FClear.8 mph50%30.24 "Hg10 mi
9:00 pm54 °FClear.10 mph47%30.21 "Hg10 mi
8:30 pm55 °FSunny.14 mph44%30.21 "Hg10 mi
8:00 pm57 °FSunny.16 mph41%30.21 "Hg10 mi
7:30 pm57 °FSunny.15 mph41%30.21 "Hg10 mi
7:00 pm59 °FSunny.15 mph39%30.21 "Hg10 mi
6:30 pm59 °FSunny.15 mph39%30.21 "Hg10 mi
6:00 pm59 °FPassing clouds.12 mph39%30.21 "HgN/A
5:30 pm59 °FSunny.17 mph39%30.21 "Hg10 mi
5:00 pm59 °FSunny.14 mph39%30.21 "Hg10 mi
4:30 pm59 °FPassing clouds.16 mph42%30.21 "HgN/A
4:00 pm59 °FPassing clouds.15 mph42%30.21 "HgN/A
3:00 pm59 °FSunny.17 mph39%30.24 "Hg10 mi
2:30 pm59 °FPassing clouds.16 mph42%30.24 "HgN/A
2:00 pm57 °FPassing clouds.15 mph41%30.24 "HgN/A
1:30 pm57 °FPassing clouds.14 mph39%30.24 "HgN/A
1:00 pm57 °FPassing clouds.16 mph39%30.24 "HgN/A
Weather by CustomWeather, © 2024

See weather overview